EW9968 Weather Reports


time (UTC)temp
C
wind
direction
speed
KPH
gust
KPH
rain 1hr
cm
rain 24hr
cm
rain mn
cm
humidity
%
barometer
mb
20260508071510 -17 0.0 0.0 0.00 0.00 0.00 1007.5
20260508070006 -17 0.0 0.0 0.00 0.00 0.00 1007.3
20260508064502 -17 0.0 0.0 0.00 0.00 0.00 1007.4
20260508063057 -17 0.0 0.0 0.00 0.00 0.00 1007.6
20260508061600 -17 0.0 0.0 0.00 0.00 0.00 1007.6
20260508060049 -17 0.0 0.0 0.00 0.00 0.00 1007.5
20260508054604 -17 0.0 0.0 0.00 0.00 0.00 1007.8
20260508053041 -17 0.0 0.0 0.00 0.00 0.00 1007.9
20260508051535 -17 0.0 0.0 0.00 0.00 0.00 1008.1
20260508050038 -17 0.0 0.0 0.00 0.00 0.00 1008.2
20260508044526 -17 0.0 0.0 0.00 0.00 0.00 1008.3
20260508043022 -17 0.0 0.0 0.00 0.00 0.00 1008.2
20260508041518 -17 0.0 0.0 0.00 0.00 0.00 1008.2
20260508040019 -17 242 0.0 0.0 0.00 0.00 0.00 1008.2
20260508034517 7 39 0.0 0.0 0.00 0.00 0.00 71 1008.4
20260508033017 7 232 0.0 0.0 0.00 0.00 0.00 69 1008.1
20260508031509 7 232 0.0 0.0 0.00 0.00 0.00 67 1008.1
20260508030008 7 232 0.0 0.0 0.00 0.00 0.00 66 1008.1
20260508024507 7 232 0.0 0.0 0.00 0.00 0.00 65 1008.2
20260508023006 8 232 0.0 0.0 0.00 0.00 0.00 64 1008.2
20260508021501 8 232 0.0 0.0 0.00 0.00 0.00 61 1008.3
20260508020003 9 232 0.0 0.0 0.00 0.00 0.00 60 1008.2
20260508014602 10 232 0.0 0.0 0.00 0.00 0.00 57 1008.2
20260508013109 10 213 0.0 0.0 0.00 0.00 0.00 57 1007.9
20260508011602 10 245 0.0 0.0 0.00 0.00 0.00 56 1007.7
20260508010057 11 239 0.0 0.0 0.00 0.00 0.00 53 1007.5
20260508004600 11 255 0.0 0.0 0.00 0.00 0.00 53 1007.4
20260508003106 11 266 0.0 0.0 0.00 0.00 0.00 50 1007.0
20260508001556 12 269 0.0 0.0 0.00 0.00 0.00 49 1006.9
20260508000055 12 244 0.0 0.0 0.00 0.00 0.00 48 1006.9
20260507234555 12 239 0.0 0.0 0.00 0.00 0.00 45 1006.8
20260507233054 13 293 0.0 0.0 0.00 0.00 0.00 45 1006.7
20260507231558 13 266 0.0 0.0 0.00 0.00 0.00 42 1006.5
20260507230056 13 262 0.0 0.0 0.00 0.00 0.00 42 1006.5
20260507224601 14 8 0.0 8.0 0.00 0.05 0.00 41 1006.3
20260507223052 14 280 0.0 0.0 0.00 0.05 0.00 42 1006.1
20260507221551 15 276 0.0 0.0 0.00 0.05 0.00 40 1006.0
20260507220051 15 281 0.0 0.0 0.00 0.05 0.00 37 1006.0
20260507214550 15 250 0.0 0.0 0.00 0.05 0.00 37 1005.8
20260507213052 16 347 0.0 0.0 0.00 0.05 0.00 38 1005.5
20260507211552 15 231 0.0 0.0 0.00 0.05 0.00 38 1005.4
20260507210113 16 311 0.0 0.0 0.00 0.05 0.00 37 1005.5
20260507204555 16 199 0.0 0.0 0.00 0.10 0.00 37 1005.4
20260507203148 16 324 0.0 3.2 0.00 0.10 0.00 36 1005.4
20260507201546 16 122 0.0 1.6 0.00 0.10 0.00 36 1005.2
20260507200100 17 17 0.0 9.7 0.00 0.10 0.00 36 1005.4
20260507194543 17 260 3.2 9.7 0.00 0.18 0.00 35 1005.5
20260507193105 17 281 1.6 11.3 0.00 0.18 0.00 35 1005.7
20260507191545 17 41 0.0 0.0 0.00 0.18 0.00 38 1005.8
20260507190040 18 135 0.0 0.0 0.00 0.18 0.00 37 1006.1
20260507184536 17 233 3.2 8.0 0.00 0.20 0.00 35 1006.1
20260507183039 17 51 0.0 0.0 0.00 0.20 0.00 35 1006.2
20260507181533 17 37 0.0 3.2 0.00 0.20 0.00 36 1006.6
20260507180031 18 278 1.6 9.7 0.00 0.20 0.00 36 1006.3
20260507174529 17 20 1.6 8.0 0.00 0.20 0.00 31 1006.5
20260507173027 17 289 1.6 8.0 0.00 0.20 0.00 32 1006.3
20260507171526 17 238 0.0 6.4 0.00 0.20 0.00 33 1006.3
20260507170126 17 323 0.0 3.2 0.00 0.20 0.00 39 1006.5
20260507164523 17 274 0.0 9.7 0.00 0.20 0.00 43 1006.6
20260507163022 17 223 0.0 6.4 0.00 0.20 0.00 42 1006.7
20260507161522 16 205 0.0 6.4 0.00 0.20 0.00 45 1007.0
20260507160030 16 231 1.6 4.8 0.00 0.20 0.00 46 1007.0
20260507154517 16 322 0.0 0.0 0.00 0.20 0.00 48 1007.1
20260507153020 16 210 0.0 0.0 0.00 0.20 0.00 56 1007.0
20260507151512 15 290 0.0 0.0 0.00 0.20 0.00 59 1007.2
20260507150011 15 259 0.0 0.0 0.00 0.20 0.00 61 1007.4
20260507144520 15 292 0.0 0.0 0.00 0.20 0.00 64 1007.5
20260507143008 15 254 0.0 0.0 0.00 0.20 0.00 65 1007.6
20260507141506 15 266 0.0 0.0 0.00 0.20 0.00 68 1007.5
20260507140006 15 277 0.0 0.0 0.00 0.20 0.00 65 1007.5
20260507134504 13 239 0.0 0.0 0.00 0.20 0.00 68 1007.4
20260507133005 14 125 0.0 1.6 0.00 0.20 0.00 70 1007.3
20260507131600 13 290 0.0 1.6 0.00 0.20 0.00 72 1007.6
20260507130055 13 217 0.0 0.0 0.00 0.20 0.00 74 1007.7
20260507124553 12 279 0.0 0.0 0.00 0.20 0.00 75 1007.8
20260507123051 12 292 0.0 0.0 0.00 0.20 0.00 78 1008.0
20260507121546 11 39 0.0 0.0 0.00 0.20 0.00 82 1008.0
20260507120044 10 265 0.0 1.6 0.00 0.20 0.00 85 1008.0
20260507114550 10 40 0.0 0.0 0.00 0.20 0.00 87 1007.9
20260507113038 9 46 0.0 0.0 0.00 0.20 0.00 89 1007.8
20260507111538 8 236 0.0 0.0 0.00 0.20 0.00 90 1007.7
20260507110032 -17 0.0 0.0 0.00 0.20 0.00 1007.5
20260507104525 -17 0.0 0.0 0.00 0.20 0.00 1007.8
20260507103023 -17 0.0 0.0 0.00 0.20 0.00 1007.3
20260507101518 -17 0.0 0.0 0.00 0.20 0.00 1006.8
20260507100014 -17 0.0 0.0 0.00 0.20 0.00 1007.0
20260507094508 -17 0.0 0.0 0.00 0.20 0.00 1006.8
20260507093004 -17 0.0 0.0 0.00 0.20 0.00 1007.3
20260507091559 -17 0.0 0.0 0.00 0.20 0.00 1007.5
20260507090106 -17 0.0 0.0 0.00 0.20 0.00 1007.7
20260507084551 -17 0.0 0.0 0.00 0.20 0.00 1007.7
20260507083047 -17 0.0 0.0 0.00 0.20 0.00 1007.1
20260507081541 -17 0.0 0.0 0.00 0.20 0.00 1007.0
20260507080039 -17 0.0 0.0 0.00 0.20 0.00 1007.0
20260507074533 -17 0.0 0.0 0.00 0.20 0.00 1007.1
20260507073030 -17 0.0 0.0 0.00 0.20 0.00 1007.1